Weather History for KGZH - June, 2013

Change the Weather History Date:

Saturday, June 29, 2013

  Actual Average (KPRN) Record (KPRN)
Temperature  
Mean Temperature 82 °F -  
Max Temperature 93 °F 90 °F 106 °F (1954)
Min Temperature 73 °F 68 °F 58 °F (1974)
Cooling Degree Days 17    
Growing Degree Days 32 (Base 50)    
Moisture  
Dew Point 72 °F    
Average Humidity 81    
Maximum Humidity 94    
Minimum Humidity 45    
Precipitation  
Precipitation 0.18 in - - ()
Sea Level Pressure  
Sea Level Pressure 29.77 in    
Wind  
Wind Speed 3 mph (SSW)    
Max Wind Speed 8 mph    
Max Gust Speed -    
Visibility 8 miles    
Events Rain , Thunderstorm    
Averages and records for this station are not official NWS values.
T = Trace of Precipitation, MM = Missing Value Source: NWS Daily Summary

Daily Weather History Graph

Daily Weather History Graph

Search for Another Location

Airport or City:

Trip Planner

Search our weather history database for the weather conditions in past years. The results will help you decide how hot, cold, wet, or windy it might be!

Date:

Astronomy

Jun. 29, 2013 Rise Set
Actual Time 5:46 AM CDT 7:56 PM CDT
Civil Twilight 5:18 AM CDT 8:24 PM CDT
Nautical Twilight 4:44 AM CDT 8:58 PM CDT
Astronomical Twilight 4:07 AM CDT 9:35 PM CDT
Moon No Moon Rise 12:29 PM CDT (6/29)
Length of Visible Light 15h 06m
Length of Day
14h 10m
Waning Gibbous, 55% of the Moon is Illuminated
Jun 29
Waning Gibbous
Jun 29
Last Quarter
Jul 8
New
Jul 15
First Quarter
Jul 22
Full

Hourly Weather History & Observations

Time (CDT) Temp. Heat Index Dew Point Humidity Pressure Visibility Wind Dir Wind Speed Gust Speed Precip Events Conditions
12:53 AM 75.0 °F - 71.1 °F 87% 29.77 in 10.0 mi South 4.6 mph - N/A   Partly Cloudy
1:27 AM 75.2 °F - 71.6 °F 89% 29.81 in 10.0 mi Variable 4.6 mph - 0.00 in Rain Light Rain
1:34 AM 75.2 °F - 71.6 °F 89% 29.82 in 10.0 mi North 4.6 mph - 0.00 in Rain Light Rain
1:53 AM 73.9 °F - 71.1 °F 91% 29.79 in 9.0 mi ENE 3.5 mph - 0.00 in   Clear
2:31 AM 73.4 °F - 71.6 °F 94% 29.78 in 8.0 mi Calm Calm - N/A   Scattered Clouds
2:53 AM 73.9 °F - 72.0 °F 93% 29.76 in 7.0 mi Calm Calm - 0.00 in Rain Light Rain
3:53 AM 73.9 °F - 72.0 °F 93% 29.77 in 7.0 mi Calm Calm - 0.00 in   Overcast
4:53 AM 73.9 °F - 71.1 °F 91% 29.76 in 4.0 mi Calm Calm - N/A   Partly Cloudy
5:26 AM 73.4 °F - 71.6 °F 94% 29.77 in 2.5 mi Calm Calm - N/A   Partly Cloudy
5:38 AM 73.4 °F - 71.6 °F 94% 29.76 in 4.0 mi Calm Calm - N/A   Clear
5:49 AM 73.4 °F - 71.6 °F 94% 29.77 in 4.0 mi Calm Calm - N/A   Scattered Clouds
5:53 AM 73.0 °F - 71.1 °F 93% 29.76 in 4.0 mi Calm Calm - N/A   Mostly Cloudy
6:05 AM 73.4 °F - 71.6 °F 94% 29.77 in 2.0 mi Calm Calm - N/A   Mostly Cloudy
6:19 AM 73.4 °F - 71.6 °F 94% 29.78 in 4.0 mi SE 4.6 mph - N/A   Overcast
6:53 AM 73.0 °F - 71.1 °F 93% 29.79 in 5.0 mi Calm Calm - N/A   Overcast
7:53 AM 77.0 °F - 72.0 °F 84% 29.79 in 10.0 mi Calm Calm - N/A   Mostly Cloudy
8:10 AM 78.8 °F - 71.6 °F 78% 29.79 in 10.0 mi Calm Calm - N/A   Scattered Clouds
8:53 AM 79.0 °F - 71.1 °F 77% 29.80 in 10.0 mi Calm Calm - N/A   Scattered Clouds
9:27 AM 80.6 °F 85.4 °F 73.4 °F 79% 29.81 in 10.0 mi SSW 3.5 mph - N/A   Mostly Cloudy
9:53 AM 81.0 °F 85.8 °F 73.0 °F 77% 29.80 in 10.0 mi SW 8.1 mph - N/A   Overcast
10:40 AM 84.2 °F 90.9 °F 73.4 °F 70% 29.81 in 10.0 mi Variable 3.5 mph - N/A   Scattered Clouds
10:53 AM 84.0 °F 90.2 °F 73.0 °F 69% 29.79 in 10.0 mi West 5.8 mph - N/A   Partly Cloudy
11:53 AM 87.1 °F 94.5 °F 73.0 °F 63% 29.78 in 10.0 mi Variable 5.8 mph - N/A   Partly Cloudy
12:53 PM 90.0 °F 96.9 °F 72.0 °F 55% 29.77 in 10.0 mi Calm Calm - N/A   Partly Cloudy
1:53 PM 91.0 °F 97.6 °F 71.1 °F 52% 29.75 in 10.0 mi SW 4.6 mph - N/A   Partly Cloudy
2:53 PM 90.0 °F 96.9 °F 72.0 °F 55% 29.73 in 10.0 mi WSW 4.6 mph - N/A   Partly Cloudy
3:53 PM 91.9 °F 95.9 °F 68.0 °F 45% 29.72 in 10.0 mi SW 6.9 mph - N/A   Clear
4:53 PM 91.9 °F 96.9 °F 69.1 °F 47% 29.69 in 10.0 mi WSW 6.9 mph - N/A   Partly Cloudy
5:53 PM 82.0 °F 85.5 °F 69.1 °F 65% 29.70 in 10.0 mi North 8.1 mph - N/A   Mostly Cloudy
6:53 PM 81.0 °F 84.9 °F 71.1 °F 72% 29.72 in 10.0 mi Calm Calm - N/A   Partly Cloudy
7:26 PM 80.6 °F 84.6 °F 71.6 °F 74% 29.74 in 10.0 mi NE 4.6 mph - N/A Thunderstorm Mostly Cloudy
7:42 PM 77.0 °F - 71.6 °F 83% 29.74 in 0.8 mi Calm Calm - 0.15 in Rain , Thunderstorm Heavy Thunderstorms and Rain
7:53 PM 77.0 °F - 72.0 °F 84% 29.73 in 4.0 mi Calm Calm - 0.18 in Rain , Thunderstorm Light Thunderstorms and Rain
8:30 PM 75.2 °F - 71.6 °F 89% 29.75 in 10.0 mi Calm Calm - 0.00 in   Overcast
8:53 PM 75.9 °F - 73.0 °F 91% 29.75 in 10.0 mi Calm Calm - 0.00 in   Mostly Cloudy
9:53 PM 75.0 °F - 72.0 °F 90% 29.76 in 10.0 mi SE 5.8 mph - N/A   Overcast
10:53 PM 75.0 °F - 71.1 °F 87% 29.75 in 10.0 mi Calm Calm - N/A   Overcast
11:53 PM 73.9 °F - 71.1 °F 91% 29.76 in 7.0 mi Calm Calm - N/A   Mostly Cloudy